Location: Callao
(39.8979°N, 113.7141°W)
Time: 17:24:33
(UTC+00:00)

AO-91 - Pass Details

Date: 18 May 2021
Orbit: 453 x 808 km, 97.7° (Epoch: 19 June)

Event Time Altitude Azimuth Distance (km) Brightness Sun altitude
Rises 06:14:55 0° 26° (NNE) 2,845 ? -27.9°
Reaches altitude 10° 06:17:17 10° 39° (NE) 1,999 ? -28.0°
Enters shadow 06:18:52 19° 56° (NE) 1,544 ? -28.1°
